Location: La Bastide
(43.1661°N, 1.2755°E)
Time: 04:19:48
(UTC+00:00)

Cosmos 1953 Rocket - Pass Details

Date: 20 March 2026
Orbit: 599 x 626 km, 82.5° (Epoch: 15 April)

Event Time Altitude Azimuth Distance (km) Brightness Sun altitude
Rises 19:06:46 0° 217° (SW) 2,833 7.3 -11.6°
Reaches altitude 10° 19:09:16 10° 230° (SW) 1,938 6.7 -12.1°
Maximum altitude 19:12:50 25° 287° (WNW) 1,217 6.1 -12.7°
Drops below altitude 10° 19:16:27 10° 343° (NNW) 1,959 6.5 -13.4°
Sets 19:19:00 0° 357° (N) 2,872 7.2 -13.8°
